Latest Weather Observations for Newdegate

IDW60801

Issued at 4:05 pm WST Friday 18 April 2014 (issued every 30 minutes, with the page automatically refreshed every 10 minutes)

About weather observations | Map of weather stations | Latest weather observations for WA | Other Formats
Station Details ID: 010692 Name: NEWDEGATE RESEARCH STATION Lat: -33.11 Lon: 118.84 Height: 320.0 m
Data from the previous 72 hours. | See also: Recent months at Newdegate
Date/Time
WST
Temp
°C
App
Temp
°C
Dew
Point
Rel
Hum
%
Delta-T
°C
Wind Press
QNH
hPa
Press
MSL
hPa
Rain
since 9 am
mm
Dir
 
Spd
km/h
Gust
km/h
Spd
kts
Gust
kts
18/04:00pm 23.9 21.1 8.7 38 8.2 NNE 13 17 7 9 1019.0 1018.2 0.0
18/03:30pm 23.5 22.4 8.4 38 8.1 NNE 4 9 2 5 1019.2 - 0.0
18/03:00pm 23.8 22.2 8.6 38 8.2 N 7 13 4 7 1019.4 1018.6 0.0
18/02:30pm 23.6 22.0 8.8 39 8.1 NE 7 15 4 8 1019.4 - 0.0
18/02:00pm 22.0 19.6 8.5 42 7.2 N 11 17 6 9 1019.8 1019.0 0.0
18/01:30pm 22.6 20.2 8.7 41 7.5 NNE 11 24 6 13 1020.1 - 0.0
18/01:00pm 22.2 19.4 8.7 42 7.3 NE 13 22 7 12 1020.7 1020.0 0.0
18/12:30pm 22.6 19.9 9.0 42 7.4 NE 13 20 7 11 1021.1 - 0.0
18/12:00pm 21.2 18.6 9.4 47 6.4 ENE 13 24 7 13 1021.9 1021.2 0.0
18/11:30am 20.8 17.0 9.1 47 6.3 ENE 19 30 10 16 1022.5 - 0.0
18/11:00am 20.4 17.4 9.3 49 6.0 ENE 15 24 8 13 1023.1 1022.4 0.0
18/10:30am 19.9 16.7 9.8 52 5.5 ENE 17 28 9 15 1023.4 - 0.0
18/10:00am 18.8 15.6 10.1 57 4.7 ENE 17 26 9 14 1023.6 1022.9 0.0
18/09:30am 17.5 13.6 9.4 59 4.3 ENE 20 24 11 13 1024.0 - 0.0
18/09:00am 17.3 13.8 10.2 63 3.8 ENE 19 24 10 13 1024.3 1023.6 0.0
18/08:30am 17.3 14.4 11.1 67 3.4 ENE 17 20 9 11 1024.5 - 0.0
18/08:00am 16.0 13.2 11.4 74 2.5 ENE 17 22 9 12 1024.6 1023.9 0.0
18/07:30am 15.3 12.5 11.3 77 2.2 ENE 17 24 9 13 1024.4 - 0.0
18/07:00am 15.0 12.9 11.2 78 2.1 ENE 13 19 7 10 1024.2 1023.5 0.0
18/06:30am 14.9 13.2 11.1 78 2.1 ENE 11 17 6 9 1024.1 - 0.0
18/06:00am 14.9 12.5 11.3 79 1.9 ENE 15 20 8 11 1024.1 1023.4 0.0
18/05:30am 14.8 12.4 11.4 80 1.8 ENE 15 19 8 10 1024.1 - 0.0
18/05:00am 15.1 13.1 11.5 79 2.0 E 13 22 7 12 1023.8 1023.1 0.0
18/04:30am 15.1 12.9 12.2 83 1.6 E 15 22 8 12 1023.8 - 0.0
18/04:00am 14.0 13.5 12.0 88 1.1 ENE 6 7 3 4 1023.7 1023.0 0.0
18/03:30am 13.6 13.0 11.7 88 1.0 SE 6 7 3 4 1023.6 - 0.0
18/03:00am 13.5 12.6 11.4 87 1.1 SE 7 9 4 5 1023.6 1022.9 0.0
18/02:30am 13.6 12.9 11.5 87 1.1 SE 6 9 3 5 1023.6 - 0.0
18/02:00am 13.5 12.8 11.4 87 1.1 SE 6 7 3 4 1023.7 1023.0 0.0
18/01:30am 13.6 12.7 11.5 87 1.1 SE 7 9 4 5 1024.0 - 0.0
18/01:00am 13.4 12.5 11.3 87 1.1 ESE 7 9 4 5 1023.9 1023.2 0.0
18/12:30am 13.9 12.6 11.4 85 1.4 SE 9 13 5 7 1023.9 - 0.0
18/12:00am 14.4 12.6 12.1 86 1.3 ESE 13 19 7 10 1023.9 1023.2 0.0
 
Date/Time
WST
Temp
°C
App
Temp
°C
Dew
Point
Rel
Hum
%
Delta-T
°C
Wind Press
QNH
hPa
Press
MSL
hPa
Rain
since 9 am
mm
Dir
 
Spd
km/h
Gust
km/h
Spd
kts
Gust
kts
17/11:30pm 13.4 12.5 11.3 87 1.1 SE 7 13 4 7 1023.9 - 0.0
17/11:00pm 13.2 11.8 10.9 86 1.2 SE 9 13 5 7 1023.8 1023.1 0.0
17/10:30pm 12.7 11.2 10.4 86 1.2 SSE 9 15 5 8 1024.0 - 0.0
17/10:00pm 11.7 10.1 8.7 82 1.5 SSE 7 9 4 5 1024.1 1023.4 0.0
17/09:30pm 13.1 11.7 9.5 79 1.9 SE 7 7 4 4 1024.0 - 0.0
17/09:00pm 14.5 12.9 10.1 75 2.3 SE 9 9 5 5 1023.8 1023.1 0.0
17/08:30pm 15.6 14.1 10.6 72 2.7 ESE 9 13 5 7 1023.6 - 0.0
17/08:00pm 16.5 14.2 10.4 67 3.3 SE 13 19 7 10 1023.4 1022.7 0.0
17/07:30pm 17.5 14.1 10.4 63 3.8 ESE 19 26 10 14 1023.0 - 0.0
17/07:00pm 16.4 14.0 7.1 54 4.7 S 9 11 5 6 1022.4 1021.6 0.0
17/06:30pm 17.3 14.6 7.4 52 5.1 SSW 11 13 6 7 1022.0 - 0.0
17/06:00pm 18.6 16.0 7.7 49 5.6 SSW 11 13 6 7 1021.8 1021.1 0.0
17/05:30pm 20.5 17.7 8.5 46 6.4 S 13 20 7 11 1021.3 - 0.0
17/05:00pm 21.9 18.7 8.4 42 7.2 S 15 20 8 11 1020.9 1020.2 0.0
17/04:30pm 22.6 19.5 8.7 41 7.5 SSW 15 22 8 12 1020.6 - 0.0
17/04:00pm 23.1 20.6 8.4 39 7.9 S 11 22 6 12 1020.6 1019.9 0.0
17/03:30pm 24.0 21.2 8.4 37 8.4 SW 13 20 7 11 1020.4 - 0.0
17/03:00pm 24.1 22.1 8.5 37 8.4 SSW 9 20 5 11 1020.5 1019.8 0.0
17/02:30pm 24.0 21.2 8.4 37 8.4 SW 13 24 7 13 1020.3 - 0.0
17/02:00pm 23.4 20.8 7.9 37 8.3 S 11 22 6 12 1020.4 1019.7 0.0
17/01:30pm 22.8 19.6 8.5 40 7.7 SSW 15 24 8 13 1020.5 - 0.0
17/01:00pm 22.8 19.0 8.9 41 7.5 SSW 19 28 10 15 1020.8 1020.1 0.0
17/12:30pm 22.3 19.8 8.1 40 7.6 S 11 15 6 8 1021.0 - 0.0
17/12:00pm 22.1 18.8 7.9 40 7.5 WSW 15 24 8 13 1021.4 1020.7 0.0
17/11:30am 20.6 17.6 7.9 44 6.7 W 13 20 7 11 1021.6 - 0.0
17/11:00am 20.5 18.1 8.8 47 6.2 SW 11 24 6 13 1021.9 1021.2 0.0
17/10:30am 20.1 17.1 9.1 49 5.9 WSW 15 22 8 12 1021.9 - 0.0
17/10:00am 18.6 15.8 9.9 57 4.7 SW 15 24 8 13 1022.1 1021.4 0.0
17/09:30am 17.4 13.8 9.8 61 4.1 SSW 19 26 10 14 1022.1 - 0.0
17/09:00am 17.1 14.2 9.8 62 3.9 SSW 15 20 8 11 1022.0 1021.3 0.0
17/08:30am 14.7 13.8 10.7 77 2.1 SSE 6 9 3 5 1022.0 - 0.0
17/08:00am 12.8 11.8 11.0 89 1.0 S 7 9 4 5 1021.9 1021.2 0.0
17/07:30am 10.3 8.9 8.7 90 0.8 S 6 7 3 4 1021.4 - 0.0
17/07:00am 9.3 6.6 7.4 88 0.9 SSW 11 13 6 7 1021.0 1020.3 0.0
17/06:30am 9.6 6.6 7.5 87 1.0 SW 13 15 7 8 1020.6 - 0.0
17/06:00am 9.5 7.1 6.9 84 1.2 SW 9 11 5 6 1020.2 1019.4 0.0
17/05:30am 10.0 7.3 7.4 84 1.3 SW 11 13 6 7 1020.0 - 0.0
17/05:00am 10.1 7.4 7.2 82 1.4 WSW 11 13 6 7 1019.9 1019.1 0.0
17/04:30am 9.4 7.4 6.3 81 1.5 SW 6 9 3 5 1019.8 - 0.0
17/04:00am 9.8 7.9 6.5 80 1.6 WSW 6 7 3 4 1019.6 1018.8 0.0
17/03:30am 10.5 9.6 7.7 83 1.4 WSW 2 2 1 1 1019.4 - 0.0
17/03:00am 7.9 6.5 5.4 84 1.1 W 2 6 1 3 1019.4 1018.6 0.0
17/02:30am 7.0 5.7 4.0 81 1.3 CALM 0 0 0 0 1019.2 - 0.0
17/02:00am 8.3 6.2 5.6 83 1.2 WSW 6 6 3 3 1019.3 1018.5 0.0
17/01:30am 7.9 6.7 4.8 81 1.4 CALM 0 2 0 1 1019.5 - 0.0
17/01:00am 8.3 6.4 4.9 79 1.5 WSW 4 4 2 2 1019.5 1018.7 0.0
17/12:30am 9.8 8.8 5.6 75 2.0 CALM 0 0 0 0 1019.4 - 0.0
17/12:00am 11.5 10.0 6.8 73 2.3 E 4 7 2 4 1019.4 1018.6 0.0
 
Date/Time
WST
Temp
°C
App
Temp
°C
Dew
Point
Rel
Hum
%
Delta-T
°C
Wind Press
QNH
hPa
Press
MSL
hPa
Rain
since 9 am
mm
Dir
 
Spd
km/h
Gust
km/h
Spd
kts
Gust
kts
16/11:30pm 13.4 11.0 8.5 72 2.5 S 11 13 6 7 1019.3 - 0.0
16/11:00pm 11.3 10.5 6.4 72 2.3 CALM 0 2 0 1 1019.3 1018.5 0.0
16/10:30pm 10.8 9.2 6.2 73 2.2 SW 4 6 2 3 1019.5 - 0.0
16/10:00pm 10.9 9.9 5.7 70 2.4 CALM 0 0 0 0 1019.6 1018.8 0.0
16/09:30pm 10.9 9.9 5.4 69 2.6 CALM 0 0 0 0 1019.7 - 0.0
16/09:00pm 12.2 11.0 6.3 67 2.8 SW 2 4 1 2 1019.7 1018.9 0.0
16/08:30pm 13.1 11.7 7.3 68 2.9 SW 4 6 2 3 1019.8 - 0.0
16/08:00pm 12.4 11.1 6.0 65 3.1 SSW 2 6 1 3 1019.8 1019.0 0.0
16/07:30pm 14.0 13.4 7.3 64 3.3 CALM 0 0 0 0 1019.6 - 0.0
16/07:00pm 13.7 11.7 6.3 61 3.6 SSW 6 7 3 4 1019.6 1018.8 0.0
16/06:30pm 14.9 12.8 6.7 58 4.1 SW 7 7 4 4 1019.6 - 0.0
16/06:00pm 17.6 16.2 5.5 45 5.9 W 2 4 1 2 1019.4 1018.6 0.0
16/05:30pm 21.1 19.5 8.0 43 6.9 W 6 9 3 5 1019.5 - 0.0
16/05:00pm 22.6 20.8 8.0 39 7.8 W 7 11 4 6 1019.4 1018.6 0.0
16/04:30pm 23.2 21.1 8.1 38 8.1 W 9 15 5 8 1019.4 - 0.0
16/04:00pm 23.7 22.0 8.2 37 8.3 W 7 13 4 7 1019.5 1018.7 0.0
16/03:30pm 23.8 21.3 8.2 37 8.4 W 11 17 6 9 1019.6 - 0.0
16/03:00pm 23.8 21.1 9.0 39 8.1 W 13 22 7 12 1019.9 1019.1 0.0
16/02:30pm 23.4 21.8 8.7 39 8.0 WNW 7 13 4 7 1020.0 - 0.0
16/02:00pm 23.4 21.5 9.0 40 7.8 WSW 9 19 5 10 1020.1 1019.3 0.0
16/01:30pm 22.5 20.7 9.3 43 7.2 W 9 19 5 10 1020.2 - 0.0
16/01:00pm 22.4 20.7 8.5 41 7.4 WNW 7 17 4 9 1020.5 1019.8 0.0
16/12:30pm 22.2 21.0 9.7 45 6.9 NW 6 11 3 6 1021.1 - 0.0
16/12:00pm 20.9 19.5 9.5 48 6.2 NNW 7 15 4 8 1021.7 1021.0 0.0
16/11:30am 20.8 20.4 11.2 54 5.4 N 4 7 2 4 1022.4 - 0.0
16/11:00am 19.6 19.1 10.6 56 4.9 N 4 11 2 6 1022.8 1022.0 0.0
16/10:30am 19.1 18.7 11.2 60 4.4 NNE 4 11 2 6 1023.2 - 0.0
16/10:00am 17.9 17.9 11.2 65 3.7 SE 2 6 1 3 1023.4 1022.7 0.0
16/09:30am 17.3 16.9 11.1 67 3.4 S 4 6 2 3 1023.6 - 0.0
16/09:00am 16.5 16.2 11.4 72 2.8 SSE 4 7 2 4 1023.6 1022.9 0.0
16/08:30am 15.8 14.9 11.2 74 2.5 S 7 7 4 4 1023.7 - 0.0
16/08:00am 15.5 14.6 11.3 76 2.3 SE 7 9 4 5 1023.7 1023.0 0.0
16/07:30am 15.2 14.5 11.4 78 2.1 SE 6 9 3 5 1023.3 - 0.0
16/07:00am 14.8 13.9 11.4 80 1.8 SE 7 9 4 5 1022.9 1022.1 0.0
16/06:30am 14.8 13.5 11.4 80 1.8 ESE 9 13 5 7 1022.7 - 0.0
16/06:00am 14.7 13.4 11.1 79 1.9 S 9 13 5 7 1022.6 1021.8 0.0
16/05:30am 15.1 14.1 11.1 77 2.2 SSE 7 11 4 6 1022.6 - 0.0
16/05:00am 15.2 13.9 11.2 77 2.2 SSE 9 15 5 8 1022.5 1021.7 0.0
16/04:30am 15.3 13.6 11.1 76 2.3 SSE 11 15 6 8 1022.4 - 0.0
16/04:00am 15.3 14.5 10.9 75 2.4 SSE 6 7 3 4 1022.1 1021.4 0.0
16/03:30am 15.4 14.3 10.8 74 2.5 SSE 7 9 4 5 1022.0 - 0.0
16/03:00am 15.4 14.0 10.8 74 2.5 SSE 9 13 5 7 1021.8 1021.1 0.0
16/02:30am 15.6 14.7 11.4 76 2.3 SE 7 11 4 6 1021.7 - 0.0
16/02:00am 15.8 14.6 11.6 76 2.3 SE 9 11 5 6 1022.0 1021.3 0.0
16/01:30am 16.0 14.2 12.2 78 2.1 SE 13 20 7 11 1022.1 - 0.0
16/01:00am 16.1 13.7 12.7 80 1.9 SSE 17 22 9 12 1022.1 1021.4 0.0
16/12:30am 16.1 13.7 12.8 81 1.9 SSE 17 24 9 13 1022.3 - 0.0
16/12:00am 15.7 13.3 12.6 82 1.7 SSE 17 22 9 12 1022.1 1021.4 0.0
 
Date/Time
WST
Temp
°C
App
Temp
°C
Dew
Point
Rel
Hum
%
Delta-T
°C
Wind Press
QNH
hPa
Press
MSL
hPa
Rain
since 9 am
mm
Dir
 
Spd
km/h
Gust
km/h
Spd
kts
Gust
kts
15/11:30pm 15.3 12.9 10.1 71 2.8 S 13 17 7 9 1022.1 - 0.0
15/11:00pm 13.9 12.4 8.5 70 2.7 S 6 9 3 5 1021.7 1021.0 0.0
15/10:30pm 15.3 14.3 8.8 65 3.4 S 4 7 2 4 1021.8 - 0.0
15/10:00pm 16.6 14.8 9.3 62 3.8 SSW 9 13 5 7 1021.8 1021.1 0.0
15/09:30pm 17.6 15.1 9.8 60 4.2 SSW 13 17 7 9 1021.7 - 0.0
15/09:00pm 18.0 15.1 9.6 58 4.5 SSW 15 19 8 10 1021.7 1021.0 0.0
15/08:30pm 18.3 15.8 9.6 57 4.7 SSW 13 17 7 9 1021.5 - 0.0
15/08:00pm 19.1 16.5 9.3 53 5.2 SW 13 17 7 9 1021.3 1020.6 0.0
15/07:30pm 19.5 17.1 8.8 50 5.7 SSW 11 15 6 8 1020.9 - 0.0
15/07:00pm 21.2 18.5 9.1 46 6.5 SW 13 17 7 9 1020.6 1019.9 0.0
15/06:30pm 21.1 18.3 8.7 45 6.6 SW 13 15 7 8 1020.4 - 0.0
15/06:00pm 22.0 19.6 8.5 42 7.2 SW 11 15 6 8 1020.0 1019.2 0.0
15/05:30pm 23.5 21.0 8.0 37 8.3 WSW 11 20 6 11 1019.6 - 0.0
15/05:00pm 24.7 21.3 7.8 34 9.1 WSW 15 22 8 12 1019.4 1018.6 0.0
15/04:30pm 25.2 21.0 7.3 32 9.6 W 19 26 10 14 1019.3 - 0.0

Other Formats:

Comma delimited format used in spreadsheet applications
http://www.bom.gov.au/fwo/IDW60801/IDW60801.94628.axf

JavaScript Object Notation format (JSON) in row-major order
http://www.bom.gov.au/fwo/IDW60801/IDW60801.94628.json